www.pogodaiklimat.ru

Погода и климат >> Архив погоды >> Испания >> Мадрид


АРХИВ ПОГОДЫ в Мадриде

Время (UTC), дата Ветер
(напр.,м/с)
 
Видим.   Явления Облачность Т
(С)
Тd
(С)
f
(%)
Тe
(С)
Тes
(С)
Комфортность P
(гПа)
Po
(гПа)
Тmin
(С)
Tmax
(С)
R
(мм)
R24
(мм)
S
(см)
13 18.08 ЮЗ 9 30 км 5/1
[Cu hum As trans Ci fib]
+35.1 -2.2 9 +31 +33 жарко 1008.0 945.6
14 18.08 ЮЗ 9 30 км 5/0
[Ac trans Ci fib]
+35.0 -2.6 9 +31 +32 жарко 1007.7 945.3
15 18.08 ЮЗ 9 30 км 5/0
[Ac und Ci sp]
+35.7 -4.0 8 +32 +32 жарко 1007.4 945.1
16 18.08 ЮЗ 8 30 км 4/0
[Ac lent Ci sp]
+35.6 -3.7 8 +32 +32 жарко 1007.1 944.8
17 18.08 ЮЗ 8 30 км 4/0
[Ac lent Cc]
+35.4 -0.9 10 +32 +32 жарко 1006.7 944.5
18 18.08 ЮЗ 10 30 км 4/0
[Ac lent Ci fib]
+34.0 -1.9 10 +30 +30 жарко 1007.2 944.6 +36.6
19 18.08 ЮЗ 8 30 км 5/0
[Ac und Ci fib]
+32.3 +1.4 14 +29 +29 жарко 1007.9 945.0
20 18.08 ЮЗ 5 30 км ясно +30.3 +4.1 19 +28 +28 жарко 1008.9 945.5
21 18.08 ЮЗ 4 30 км ясно +29.4 +6.1 23 +28 +28 жарко 1009.9 946.3
22 18.08 З 3 30 км 1/0
[Ac trans Ci sp]
+28.2 +8.4 29 +28 +28 жарко 1010.5 946.7
23 18.08 СВ 2 30 км н/о +25.4 +7.5 32 +25 +25 комфорт 1011.7 947.2
00 19.08 С 2 30 км ясно +24.3 +9.1 38 +25 +25 комфорт 1012.0 947.3
01 19.08 СВ 1 30 км ясно +23.0 +8.7 40 +24 +24 комфорт 1012.3 947.3
02 19.08 В 2 30 км н/о +23.2 +7.3 36 +24 +24 комфорт 1012.2 947.2
03 19.08 В 1 30 км ясно +22.4 +7.4 38 +23 +23 комфорт 1012.5 947.3
04 19.08 В 2 30 км 5/0
[Ci sp]
+21.0 +7.6 42 +23 +23 комфорт 1012.7 947.2
05 19.08 С 3 30 км 1/0
[Ci sp]
+20.7 +10.5 52 +23 +23 комфорт 1012.9 947.4
06 19.08 С 2 30 км 1/0
[Ci fib]
+20.1 +10.2 53 +22 +23 комфорт 1013.5 947.9 +20.1
07 19.08 З 1 25 км 1/0
[Ci fib]
+23.2 +11.6 48 +26 +28 жарко 1012.8 947.9
08 19.08 В 2 30 км н/о +25.6 +12.1 43 +27 +27 жарко 1012.4 948.0
09 19.08 Ю 2 30 км 3/0
[Ci sp]
+27.4 +11.4 37 +28 +37 жарко 1012.2 948.2
10 19.08 ЮВ 3 25 км 5/0
[Cs]
+28.6 +12.1 36 +30 +40 жарко 1011.8 948.1
11 19.08 ЮЗ 3 30 км 5/0
[Cs]
+30.2 +12.1 33 +31 +42 жарко 1011.2 947.8
12 19.08 ЮЗ 6 30 км 5/0
[Cs]
+32.4 +9.8 25 +32 +37 жарко 1010.4 947.5
13 19.08 ЮЗ 6 29 км 5/1
[Cu hum Ac und Cs]
+33.2 +10.5 25 +33 +37 жарко 1010.0 947.3
14 19.08 ЮЗ 6 30 км 5/1
[Cu hum Ac und Cs]
+33.1 +9.3 23 +32 +36 жарко 1009.7 946.9
15 19.08 З 5 30 км 5/5
[Cu hum As trans Cs]
+33.0 +9.7 24 +32 +35 жарко 1009.0 946.3
16 19.08 З 4 30 км 5/5
[Cu hum As trans Cs]
+32.6 +10.0 25 +32 +34 жарко 1008.8 946.0
17 19.08 З 6 30 км 5/5
[Cu hum As trans Cs]
+31.9 +9.4 25 +31 +32 жарко 1008.9 945.9
18 19.08 З 4 30 км 6/5
[Cu hum As trans Cs]
+31.2 +8.8 25 +30 +31 жарко 1009.0 945.9 +33.6
19 19.08 З 4 30 км ясно +30.3 +3.3 18 +28 +28 жарко 1009.6 946.2
20 19.08 З 4 30 км 9/0
[Cs]
+30.0 +4.6 20 +28 +28 жарко 1010.1 946.6
21 19.08 С 3 30 км 9/0
[Cs]
+29.1 +7.1 25 +28 +28 жарко 1010.7 947.1
22 19.08 С 4 30 км 9/0
[Ac As Ci sp]
+26.0 +10.6 38 +27 +27 жарко 1012.1 947.8
23 19.08 СВ 3 30 км 9/0
[Ac As Ci sp]
+24.4 +11.3 44 +26 +26 жарко 1012.8 948.1
00 20.08 СВ 5 30 км слаб. морось {дождь} 9/0
[Ac As Ci sp]
+22.3 +13.0 56 +25 +25 комфорт 1013.9 948.7
01 20.08 СВ 2 30 км 9/0
[Ac As Ci sp]
+21.5 +13.7 61 +24 +24 комфорт 1014.1 948.7
02 20.08 С 3 30 км {дождь, морось} 9/0
[Ac As Ci sp]
+20.1 +14.9 72 +23 +23 комфорт 1014.1 948.6
03 20.08 В 4 30 км {дождь, морось} 9/0
[Ac As Ci sp]
+20.7 +13.4 63 +23 +23 комфорт 1013.2 947.7 0.1
04 20.08 С 4 30 км 9/0
[Ac As Ci sp]
+20.3 +13.7 66 +23 +23 комфорт 1014.2 948.6
05 20.08 С 3 30 км 9/0
[Ac As Ci sp]
+20.2 +13.6 66 +23 +23 комфорт 1014.5 948.9
06 20.08 С 4 30 км 9/4 600 м
[Sc diur, vesp Ac As Ci sp]
+20.4 +14.1 67 +23 +23 комфорт 1015.2 949.6 +19.8
07 20.08 С 4 30 км 9/4 600 м
[Sc diur, vesp Ac cuf Ci sp]
+20.4 +14.1 67 +23 +23 комфорт 1015.6 950.0
08 20.08 С 3 30 км 8/4 600 м
[Cu Sc Ac cuf Ci sp]
+21.1 +14.3 65 +24 +25 комфорт 1015.8 950.3
09 20.08 СВ 4 30 км 6/4 600 м
[Cu Sc Ac trans Ci sp]
+23.9 +14.9 57 +27 +30 жарко 1015.6 950.7
10 20.08 СВ 5 30 км 6/4 600 м
[Cu Sc Ac cuf Ci sp]
+25.6 +14.7 51 +28 +31 жарко 1015.5 951.0
11 20.08 СВ 5 20 км 3/3 600 м
[Cu med, cong]
+27.3 +14.8 46 +30 +35 душно 1015.4 951.3
12 20.08 СВ 5 20 км 1/1 600 м
[Cu med, cong]
+28.4 +13.9 41 +30 +38 жарко 1015.0 951.1
13 20.08 СВ 5 30 км 3/3 600 м
[Cu med, cong]
+29.2 +13.2 37 +31 +36 жарко 1014.6 950.9
14 20.08 С 4 25 км 3/1 600 м
[Cu med, cong Ci fib]
+30.3 +11.9 32 +31 +39 жарко 1014.0 950.4
15 20.08 С 4 30 км 3/3 600 м
[Cu med, cong Ci fib]
+31.0 +10.8 29 +31 +36 жарко 1013.3 949.9
16 20.08 С 4 30 км 3/1 600 м
[Cu med, cong Ci fib]
+31.3 +8.9 25 +30 +34 жарко 1013.2 949.8
17 20.08 СВ 4 30 км 3/1 600 м
[Cu med, cong Ci fib]
+30.8 +9.6 27 +30 +32 жарко 1013.3 949.8
18 20.08 СВ 5 30 км 3/1
[Cu med, cong Ci fib]
+28.9 +11.0 33 +29 +30 жарко 1013.8 950.0 +31.7
19 20.08 СВ 5 30 км 3/1
[Cu med, cong Ci fib]
+26.5 +11.8 40 +28 +28 жарко 1014.9 950.5
20 20.08 СВ 5 30 км 3/1
[Cu hum Ci fib]
+24.9 +12.1 45 +27 +27 жарко 1016.0 951.2
21 20.08 СВ 4 30 км 4/0
[Ac lent Ci fib]
+23.6 +12.6 50 +26 +26 жарко 1017.1 952.0
22 20.08 СВ 4 30 км 4/0
[Ac lent Ci fib]
+22.8 +12.7 53 +26 +26 жарко 1018.1 952.7
23 20.08 СВ 3 30 км 3/1
[Cu hum Ci fib]
+21.6 +12.2 55 +24 +24 комфорт 1018.8 953.2
00 21.08 СВ 3 30 км 4/1 1000 м
[Cu hum Ci fib]
+21.0 +11.9 56 +24 +24 комфорт 1019.3 953.5
01 21.08 СВ 2 30 км 6/4 1000 м
[Cu Sc Ci fib]
+20.4 +11.9 58 +23 +23 комфорт 1019.6 953.7
02 21.08 СВ 3 30 км 6/6 1000 м
[Cu Sc]
+20.2 +11.7 58 +22 +22 комфорт 1019.5 953.5
03 21.08 СВ 3 30 км 6/6 1000 м
[Cu Sc]
+20.4 +12.1 59 +23 +23 комфорт 1019.2 953.3
04 21.08 СВ 3 30 км 9/9 600 м
[Cu Sc]
+20.6 +12.3 59 +23 +23 комфорт 1019.0 953.2
05 21.08 СВ 2 30 км 10/10 600 м
[Cu Sc]
+20.6 +12.3 59 +24 +24 комфорт 1019.0 953.2
06 21.08 СВ 2 30 км 10/10 600 м
[St]
+20.9 +12.6 59 +24 +24 комфорт 1019.1 953.3 +20.2
07 21.08 СВ 2 30 км 10/10 600 м
[Cu Sc]
+21.2 +12.9 59 +23 +23 комфорт 1019.2 953.5
08 21.08 СВ 2 16 км 10/10 600 м
[Cu Sc]
+21.8 +13.2 58 +24 +24 комфорт 1019.0 953.5
09 21.08 СВ 2 30 км 10/10 600 м
[Cu Sc]
+22.6 +13.9 58 +26 +26 жарко 1019.0 953.6
10 21.08 СВ 2 30 км 10/10 600 м
[Cu Sc]
+24.3 +14.7 55 +27 +27 жарко 1018.5 953.5
11 21.08 В 3 30 км 8/8 1000 м
[Cu Sc]
+26.6 +15.3 50 +29 +32 жарко 1017.4 953.0
12 21.08 Ю 2 28 км 6/3 1000 м
[Cu Sc Ac und Ci fib]
+28.6 +15.2 44 +31 +41 жарко 1016.2 952.3
13 21.08 Ю 3 25 км 5/3 1500 м
[Cu med, cong Ac und Ci fib]
+29.5 +14.9 41 +32 +41 душно 1015.3 951.6
14 21.08 Ю 2 30 км 5/3 1500 м
[Cu Sc Ac trans Cs]
+30.2 +14.7 39 +32 +41 жарко 1014.4 950.8
15 21.08 З 3 30 км 4/4 1500 м
[Cu Sc Ac trans Ci sp]
+30.6 +13.9 36 +32 +37 жарко 1013.7 950.3
16 21.08 СЗ 1 30 км 5/3 1500 м
[Cu Sc Ci sp]
+31.0 +12.8 33 +32 +37 жарко 1013.3 949.9
17 21.08 СЗ 2 30 км 6/4 2000 м
[Cb calv Ac As Ci sp]
+30.0 +11.6 32 +31 +32 жарко 1013.2 949.6
18 21.08 СЗ 1 30 км 5/3 1500 м
[Cb cap Ac und Cs]
+30.7 +11.8 31 +31 +32 жарко 1013.2 949.8 +31.9
19 21.08 Ю 6 30 км 5/1 1500 м
[Cb cap Ac As Cs]
+25.3 +13.8 49 +28 +28 жарко 1015.4 950.8
20 21.08 В 5 30 км в посл. час гроза 10/6 1350 м
[Cb cap Ac As Ci sp]
+23.9 +14.9 57 +27 +27 жарко 1017.6 952.6
21 21.08 В 2 10 км дождь {гроза, ливн. осадки} 10/5 1500 м
[Cb cap Ac cuf Ci sp]
+18.5 +16.4 88 +20 +20 холодно 1020.2 953.9 8
22 21.08 С 4 20 км в посл. час гроза {ливн. осадки} 5/4 1500 м
[Cb cap Ac cuf]
+18.4 +16.9 91 +19 +19 холодно 1020.5 954.2
23 21.08 С 2 20 км {гроза, ливн. осадки} ясно +18.0 +17.0 94 +19 +19 прохладно 1020.4 954.0
00 22.08 СЗ 2 18 км {гроза, ливн. осадки} ясно +18.0 +16.7 92 +19 +19 прохладно 1020.2 953.8 3
01 22.08 В 2 30 км ясно +17.0 +15.7 92 +18 +18 по сезону 1020.5 953.8
02 22.08 штиль 0 30 км ясно +16.5 +15.5 94 +16 +16 прохладно 1020.5 953.7
03 22.08 С 2 30 км ясно +16.4 +15.6 95 +16 +16 прохладно 1020.8 954.0 0.0
04 22.08 С 2 30 км ясно +16.6 +15.8 95 +17 +17 по сезону 1020.3 953.6
05 22.08 С 3 25 км ясно +15.9 +14.6 92 +15 +15 по сезону 1020.8 953.8
06 22.08 С 2 30 км ясно +15.3 +14.0 92 +15 +15 по сезону 1021.2 954.0 +15.3 0.0
07 22.08 С 1 20 км ясно +17.4 +14.9 85 +18 +20 очень
холодно
1020.8 954.2
08 22.08 С 2 20 км ясно +19.5 +15.2 76 +22 +26 комфорт 1020.4 954.3
09 22.08 В 2 20 км ясно +22.3 +15.6 66 +26 +35 жарко 1019.9 954.4
10 22.08 В 2 30 км ясно +24.8 +14.2 52 +27 +39 жарко 1019.2 954.2
11 22.08 ЮВ 3 25 км ясно +26.7 +14.3 46 +29 +43 жарко 1018.3 953.8
12 22.08 В 2 30 км ясно +28.9 +11.8 35 +30 +46 жарко 1017.1 953.1
13 22.08 В 2 30 км 3/0
[Ci fib]
+30.9 +5.2 20 +29 +44 жарко 1016.0 952.4
14 22.08 В 2 30 км н/о +32.1 +4.6 18 +30 +30 жарко 1015.3 951.9
15 22.08 В 3 30 км 1/1
[Cu hum]
+32.8 -1.5 11 +29 +38 жарко 1014.7 951.4
16 22.08 ЮВ 3 30 км 1/0
[Ci fib]
+32.6 +1.9 14 +30 +35 жарко 1014.3 951.0
17 22.08 Ю 1 30 км 1/0
[Ci fib]
+32.8 +4.5 17 +30 +34 жарко 1013.9 950.7
18 22.08 Ю 2 30 км 1/0
[Cc]
+31.5 +3.9 17 +29 +30 жарко 1014.3 950.8 +33.1
19 22.08 Ю 2 30 км 1/0
[Cc]
+29.2 +4.3 20 +27 +27 жарко 1015.1 951.2
20 22.08 ЮВ 2 30 км 1/0
[Ci fib]
+25.8 +4.4 25 +25 +25 комфорт 1016.1 951.4
21 22.08 ЮВ 3 30 км 8/0
[Cs]
+25.6 +5.2 27 +25 +25 комфорт 1016.5 951.7
22 22.08 С 2 30 км 8/0
[Cs]
+22.3 +8.4 41 +24 +24 комфорт 1017.3 951.8
23 22.08 СЗ 2 30 км 1/0
[Ci sp]
+20.6 +8.9 47 +23 +23 комфорт 1018.3 952.4
00 23.08 СВ 2 30 км 1/0
[Ci sp]
+20.2 +6.2 40 +22 +22 комфорт 1018.7 952.7
01 23.08 СЗ 2 30 км ясно +19.6 +7.4 45 +21 +21 комфорт 1019.0 952.8
02 23.08 СЗ 2 30 км ясно +19.3 +9.4 53 +21 +21 комфорт 1019.3 953.1
03 23.08 С 2 30 км ясно +18.4 +8.7 53 +19 +19 по сезону 1020.1 953.6
04 23.08 С 2 30 км ясно +17.9 +6.6 48 +18 +18 тепло 1020.4 953.7
05 23.08 С 1 30 км ясно +16.4 +6.7 53 +17 +17 по сезону 1020.8 953.8
06 23.08 С 2 30 км ясно +16.0 +6.4 53 +16 +17 по сезону 1021.5 954.3 +16.0
07 23.08 С 1 30 км ясно +18.1 +6.8 48 +19 +21 очень
холодно
1021.2 954.5
08 23.08 С 2 30 км ясно +20.9 +8.6 45 +23 +28 комфорт 1020.4 954.5
09 23.08 С 1 30 км ясно +24.4 +10.7 42 +26 +35 жарко 1019.6 954.4
10 23.08 Ю 3 30 км ясно +27.4 +10.1 34 +28 +39 жарко 1018.5 954.1
11 23.08 Ю 2 30 км ясно +29.1 +10.2 31 +29 +46 жарко 1017.7 953.7
12 23.08 ЮВ 3 30 км ясно +30.3 +10.1 29 +30 +45 жарко 1016.7 953.0
13 23.08 ЮВ 3 30 км ясно +31.3 +9.0 25 +30 +45 жарко 1015.6 952.1
14 23.08 З 2 30 км ясно +32.1 +5.7 19 +30 +44 жарко 1014.8 951.4
15 23.08 З 2 26 км ясно +32.8 +4.5 17 +30 +41 жарко 1014.3 951.1
16 23.08 Ю 3 30 км ясно +33.0 +5.9 18 +31 +36 жарко 1013.8 950.7
17 23.08 С 1 27 км ясно +32.7 +4.5 17 +30 +34 жарко 1013.5 950.3
18 23.08 В 2 30 км ясно +32.2 +4.9 18 +30 +31 жарко 1013.2 949.9 +33.5
19 23.08 ЮВ 1 30 км ясно +28.8 +6.2 24 +28 +28 жарко 1013.9 950.0
20 23.08 Ю 1 30 км ясно +26.3 +5.8 27 +26 +26 жарко 1014.8 950.3
21 23.08 СВ 1 30 км ясно +24.2 +8.2 36 +25 +25 комфорт 1015.5 950.5
22 23.08 С 2 30 км ясно +23.1 +8.6 40 +24 +24 комфорт 1016.0 950.8
23 23.08 СЗ 1 30 км ясно +21.4 +7.9 42 +22 +22 комфорт 1016.9 951.3
00 24.08 ЮВ 2 30 км ясно +21.3 +8.9 45 +23 +23 комфорт 1017.5 951.9
01 24.08 Ю 2 30 км ясно +20.2 +6.9 42 +22 +22 комфорт 1017.9 951.9
02 24.08 ЮВ 1 30 км ясно +20.5 +7.5 43 +23 +23 комфорт 1018.1 952.2
03 24.08 С 2 30 км ясно +18.6 +8.5 52 +20 +20 тепло 1018.9 952.5
04 24.08 С 2 30 км ясно +17.0 +7.8 55 +18 +18 тепло 1019.4 952.6
05 24.08 С 2 30 км ясно +16.6 +6.5 51 +17 +17 по сезону 1019.6 952.7
06 24.08 С 2 30 км ясно +16.0 +6.6 54 +16 +16 по сезону 1019.9 952.8 +16.0
07 24.08 С 1 30 км ясно +18.3 +7.3 49 +20 +21 холодно 1019.6 953.1
08 24.08 С 1 30 км ясно +21.9 +8.7 43 +23 +28 комфорт 1018.8 953.2
09 24.08 СЗ 1 30 км ясно +25.1 +9.9 38 +26 +35 жарко 1018.1 953.2
10 24.08 Ю 2 30 км ясно +27.9 +8.7 30 +28 +40 жарко 1017.4 953.1
11 24.08 Ю 3 30 км ясно +29.8 +8.8 27 +29 +43 жарко 1016.3 952.5
12 24.08 Ю 2 30 км ясно +31.4 +8.3 24 +30 +47 жарко 1015.3 951.8
13 24.08 ЮВ 2 30 км ясно +33.2 +7.1 20 +31 +49 жарко 1014.2 951.1
14 24.08 ЮВ 3 30 км н/о +33.8 +5.3 17 +31 +31 жарко 1013.3 950.4
15 24.08 ЮЗ 2 30 км ясно +34.5 +5.0 16 +32 +43 жарко 1012.6 949.9
16 24.08 СЗ 2 30 км ясно +34.6 +5.1 16 +32 +38 жарко 1012.3 949.6
17 24.08 Ю 2 30 км ясно +34.6 +5.1 16 +32 +35 жарко 1011.9 949.2
18 24.08 В 2 30 км ясно +33.6 +5.2 17 +31 +32 жарко 1011.6 948.7 +34.9
19 24.08 ЮВ 1 30 км ясно +30.5 +5.0 20 +29 +29 жарко 1012.3 948.7
20 24.08 Ю 1 30 км ясно +27.2 +6.1 26 +26 +26 жарко 1013.2 949.0
21 24.08 С 1 30 км ясно +25.9 +7.5 31 +26 +26 жарко 1013.9 949.4
22 24.08 СВ 2 30 км ясно +24.3 +8.7 37 +25 +25 комфорт 1014.2 949.3
23 24.08 В 2 30 км ясно +22.4 +9.2 43 +24 +24 комфорт 1015.1 949.8
00 25.08 ЮВ 2 30 км ясно +23.2 +8.1 38 +24 +24 комфорт 1015.3 950.1
01 25.08 ЮВ 5 30 км 3/0
[Ci sp]
+23.8 +11.1 45 +25 +25 комфорт 1015.1 950.1
02 25.08 ЮВ 2 30 км 3/0
[Ci sp]
+23.0 +11.1 47 +25 +25 комфорт 1015.8 950.6
03 25.08 С 2 30 км 3/0
[Ci sp]
+21.3 +11.6 54 +23 +23 комфорт 1016.3 950.7
04 25.08 СВ 2 30 км ясно +20.2 +11.7 58 +23 +23 комфорт 1016.6 950.8
05 25.08 СВ 2 30 км ясно +20.2 +10.4 53 +22 +22 комфорт 1016.6 950.8
06 25.08 С 2 30 км ясно +19.0 +10.0 56 +20 +20 тепло 1017.2 951.1 +19.0
07 25.08 С 1 30 км 1/0
[Ac trans Ci fib]
+21.2 +10.4 50 +23 +24 комфорт 1017.0 951.4
08 25.08 С 2 30 км 3/0
[Ac trans Ci fib]
+23.8 +10.1 42 +25 +29 комфорт 1016.6 951.5
09 25.08 ЮВ 3 24 км 3/0
[Ac trans Ci fib]
+26.7 +10.8 37 +28 +34 жарко 1015.6 951.2
10 25.08 ЮВ 3 30 км 3/0
[Ac trans Ci fib]
+28.3 +11.4 35 +29 +39 жарко 1014.7 950.7
11 25.08 Ю 4 30 км 1/0
[Ac trans]
+30.5 +11.2 30 +31 +40 жарко 1013.4 949.9
12 25.08 В 3 30 км 1/0
[Ac trans]
+31.6 +11.4 29 +32 +46 жарко 1012.2 949.0
13 25.08 Ю 4 30 км 1/0
[Ac trans]
+33.1 +10.3 25 +33 +43 жарко 1011.2 948.4

 

Местоположение метеостанции Мадрид (Испания): широта 40.45 долгота -3.55 высота над уровнем моря 582 м.

В архиве по умолчанию представлена погода в Мадриде за последнюю неделю. Архивные данные за месяц целиком и за предыдущие месяцы, начиная с января 2011 года, Вы можете получить, выбрав интересующий диапазон дат из раскрывающегося списка и нажав кнопку "Ввод!".


*Определитесь, кто Вы:
робот инопланетянин человек

Внимание! Время в таблицах - всемирное. Для получения местного времени необходимо прибавить поправку, которая равна 1 ч.

Смотрите также архив погоды в соседних городах и на ближайших метеорологических станциях:

Погода в Мадриде Буэн-Ретиро (Испания) (12 км)
Погода в Мадриде университет (Испания) (14 км)
Погода в Мадрид аэропорту (Испания) (22 км)
Погода в Мадриде Кольменар (Испания) (33 км)
Погода в Гвадалахаре (Испания) (39 км)
Погода в Аранхуэсе (Испания) (42 км)
Погода в Навасерраде (Испания) (54 км)
Погода в Альто-де-лос-Леоне (Испания) (58 км)
Погода в Робледо-де-Чавеле (Испания) (59 км)
Погода в Буитраго (Испания) (62 км)

Пояснения к столбцам:

Ветер - указаны скорость ветра в м/с - средняя за 10 мин, порывы в срок и между сроками (в фигурных скобках) и направление, откуда дует ветер: С - северный, СВ - северо-восточный, В - восточный, ЮВ - юго-восточный, Ю - южный, ЮЗ - юго-западный, З - западный, СЗ - северо-западный.
Видимость - горизонтальная дальность видимости в метрах или километрах. При видимости от 1 до 10 км при отсутствии осадков обычно наблюдается дымка, при ухудшении видимости до 1 км и менее - туман. В сухую погоду видимость может ухудшаться дымом, пылью или мглою.
Явления - указаны атмосферные явления, наблюдавшиеся в срок или в последний час перед сроком; фигурными скобками обозначены явления, наблюдавшиеся между сроками (за 1-3 часа до срока); квадратными скобками обозначены град или гололедные отложения с указанием их диаметра в мм.
Облачность - указаны через наклонную черту общая и нижняя облачность в баллах и высота нижней границы облаков в метрах; квадратными скобками обозначены формы облаков: Ci - перистые, Cs - перисто-слоистые, Cc - перисто-кучевые, Ac - высококучевые, As - высокослоистые, Sc - слоисто-кучевые, Ns - слоисто-дождевые, Cu - кучевые, Cb - кучево-дождевые. Подробнее классификацию облаков см. в Атласе облаков (PDF).
T - Температура воздуха - температура, измеренная на высоте 2 м над землей.
Td - Температура точки росы - температура, при понижении до которой содержащийся в воздухе водяной пар достигнет насыщения.
f - Относительная влажность воздуха - влажноcть воздуха, измеренная на высоте 2 м над землей.
Te - Эффективная температура - температура, которую ощущает одетый по сезону человек в тени. Характеристика душности погоды. При расчете учитывается влияние влажности воздуха и скорости ветра на теплоощущения человека.
Tes - Эффективная температура на солнце - температура, которую ощущает человек, с поправкой на солнечный нагрев. Характеристика знойности погоды. Зависит от высоты солнца над горизонтом, облачности и скорости ветра. Ночью, в пасмурную погоду, а также при ветре 12 м/с и более поправка равна нулю.
P - Атмосферное давление - приведенное к уровню моря атмосферное давление.
Po - Атмосферное давление - измеренное на уровне метеостанции атмосферное давление.
Tmin - Минимальная температура - минимум температуры воздуха на высоте 2 м над землей.
Tmax - Максимальная температура - максимум температуры воздуха на высоте 2 м над землей.
R - Количество осадков - Количество выпавших осадков за период времени, мм. При наведении курсора мыши на число - период времени, за который выпало указанное количество осадков.
R24 - Количество осадков - Количество выпавших осадков за 24 часа, мм.
S - Снежный покров - Высота снежного покрова, см. При наведении курсора мыши на число - состояние снежного покрова и степень покрытия местности в баллах.